COSMOS 2310

导读

COSMOS 2310是独立国家联合体(CIS)于1995年3月21日8时发射的人造卫星,隶属于苏联/俄罗斯“宇宙(COSMOS)”卫星系列。该系列遵循统一命名规则,涵盖军用侦察、通信等多类卫星,通过通用命名模糊任务属性,提升运行安全性。作为系列中一颗服役超过30年的航天器,它延续了该系列典型的保密设计传统,承担原苏联/俄罗斯特定空间任务,是冷战后独联体航天活动的重要见证。

Basic Information
目录编号:
23526
目录名称:
COSMOS 2310
国际标识:
1995-012A
轨道中心:
EARTH
卫星名称:
COSMOS 2310
卫星全名:
--
卫星状态:
在轨 (已飞行11452 天)
发射日期:
1995-03-21 UTC
国别 :
俄罗斯(独联体) (CIS)
星等 :
--
Orbit Information
数据来源 国际轨道数据
星历时间: 2026-07-28T12:21:29+0800
10小时前
查看轨道信息
半长轴: 7369.329km
偏心率: 0.0022266
轨道倾角: 82.948°
近地点辐角 176.524°
升交点赤经 118.653°
平近点角 296.341°
近地点: 974.783km
远地点: 1007.601km
周期: 104.930分钟
每日圈数: 13.723374
Detailed Information
使用方式:
暂无
2D Orbit Map
3D Orbit Map
Orbit Altitude Analysis Chart
Orbit Inclination Analysis Chart
Orbit Comprehensive Analysis Chart
View Comprehensive Chart